ROMMA est une association bénévole à but non lucratif. Votre soutien est indispensable : ADHERER à ROMMA ou FAIRE un DON

Briord - (01, Ain)

Bugey (281 m)   Longitude: 05° 29' 13" E   Latitude: 45° 46' 37" N Station partenaire n°15
 

Détail journalier du     <<     >>

Température Precipitation Humidité Pression Vent Dir Rafale Dir. rafale Ensol.
Heure (°C) (mm) (%) (hPa) (km/h) (km/h) (min)
01:00 3.7095103302SE0
02:00 2.7094103300---0
03:00 2.7095103303SSE0
04:00 1.8095103300---0
05:00 1.70.295103302SE0
06:00 1.5095103306E0
07:00 1.7095103303SE0
08:00 1.2095103403SE0
09:00 1.1095103500---0
10:00 1.7095103502SSE0
11:00 3.8096103500---10
12:00 5.0095103500---0
13:00 5.409310352O11O20
14:00 5.709210341ONO5ONO0
15:00 5.909210341ONO5ONO0
16:00 6.109210352ONO6NO0
17:00 5.809210351ONO6ONO20
18:00 4.9093103500---0
19:00 2.8093103500---0
20:00 3.8095103502O0
21:00 2.8094103505N0
22:00 2.309310351NNE8NNE0
23:00 1.6094103600---0
minuit 1.9094103602ENE0

Graphique du 28-12-2019

 

Serveur OMMA